Wetterdaten: Freitag, 15.05.2015
Datum Zeit Auen-Temp. Temp gefhlt Luftfeuchte Luftdruck Regen Wind Richtung Richtung Taupunkt Windben
15.05.2015 00:00 10,9 C 10,7 C 86 % 1009,8 hPa 0,0 mm 0,0 km/h (0 Bft) W-SW 247 8,7 C 0,0 km/h (0 Bft)
15.05.2015 00:05 10,8 C 10,6 C 86 % 1009,8 hPa 0,0 mm 0,0 km/h (0 Bft) NW 315 8,6 C 0,0 km/h (0 Bft)
15.05.2015 00:10 10,8 C 10,5 C 86 % 1009,8 hPa 0,0 mm 0,0 km/h (0 Bft) NW 315 8,6 C 0,0 km/h (0 Bft)
15.05.2015 00:15 10,4 C 10,3 C 86 % 1009,6 hPa 0,0 mm 0,0 km/h (0 Bft) NW 315 8,2 C 0,0 km/h (0 Bft)
15.05.2015 00:20 10,4 C 10,2 C 86 % 1009,6 hPa 0,0 mm 0,0 km/h (0 Bft) NW 315 8,2 C 0,0 km/h (0 Bft)
15.05.2015 00:25 10,2 C 10,0 C 86 % 1009,6 hPa 0,0 mm 0,0 km/h (0 Bft) NW 315 8,0 C 0,0 km/h (0 Bft)
15.05.2015 00:30 10,3 C 10,1 C 86 % 1009,6 hPa 0,0 mm 0,0 km/h (0 Bft) NW 315 8,1 C 0,0 km/h (0 Bft)
15.05.2015 00:35 10,3 C 10,1 C 86 % 1009,7 hPa 0,0 mm 0,0 km/h (0 Bft) NW 315 8,1 C 0,0 km/h (0 Bft)
15.05.2015 00:40 10,5 C 10,3 C 86 % 1009,7 hPa 0,0 mm 0,0 km/h (0 Bft) N 360 8,3 C 0,0 km/h (0 Bft)
15.05.2015 00:45 10,5 C 10,4 C 84 % 1009,7 hPa 0,0 mm 0,0 km/h (0 Bft) N 360 7,9 C 0,0 km/h (0 Bft)
15.05.2015 00:50 10,6 C 10,5 C 85 % 1009,7 hPa 0,0 mm 0,0 km/h (0 Bft) N 360 8,2 C 0,0 km/h (0 Bft)
15.05.2015 00:55 10,6 C 10,5 C 87 % 1009,4 hPa 0,0 mm 0,0 km/h (0 Bft) NW 315 8,5 C 0,0 km/h (0 Bft)
15.05.2015 01:00 10,6 C 10,5 C 87 % 1009,4 hPa 0,0 mm 0,0 km/h (0 Bft) NW 315 8,5 C 0,0 km/h (0 Bft)
15.05.2015 01:05 10,7 C 10,5 C 87 % 1009,4 hPa 0,0 mm 0,0 km/h (0 Bft) SO 135 8,6 C 0,0 km/h (0 Bft)
15.05.2015 01:10 10,7 C 10,6 C 87 % 1009,4 hPa 0,0 mm 0,0 km/h (0 Bft) SO 135 8,6 C 0,0 km/h (0 Bft)
15.05.2015 01:15 10,8 C 10,7 C 85 % 1009,2 hPa 0,0 mm 0,0 km/h (0 Bft) SO 135 8,4 C 0,0 km/h (0 Bft)
15.05.2015 01:20 10,8 C 10,7 C 85 % 1009,2 hPa 0,0 mm 0,0 km/h (0 Bft) SO 135 8,4 C 0,0 km/h (0 Bft)
15.05.2015 01:25 10,9 C 10,7 C 87 % 1009,2 hPa 0,0 mm 0,0 km/h (0 Bft) SO 135 8,8 C 0,0 km/h (0 Bft)
15.05.2015 01:30 10,9 C 10,7 C 87 % 1009,2 hPa 0,0 mm 0,0 km/h (0 Bft) SO 135 8,8 C 0,0 km/h (0 Bft)
15.05.2015 01:35 10,9 C 10,7 C 87 % 1008,9 hPa 0,0 mm 0,0 km/h (0 Bft) SO 135 8,8 C 0,0 km/h (0 Bft)
15.05.2015 01:40 10,9 C 10,7 C 88 % 1008,9 hPa 0,0 mm 0,0 km/h (0 Bft) S-SO 157 9,0 C 0,0 km/h (0 Bft)
15.05.2015 01:45 10,9 C 10,7 C 88 % 1008,9 hPa 0,0 mm 0,0 km/h (0 Bft) S-SO 157 9,0 C 0,0 km/h (0 Bft)
15.05.2015 01:50 10,9 C 10,7 C 88 % 1008,9 hPa 0,0 mm 0,0 km/h (0 Bft) SO 135 9,0 C 0,0 km/h (0 Bft)
15.05.2015 01:55 10,9 C 10,7 C 88 % 1008,8 hPa 0,0 mm 0,0 km/h (0 Bft) S-SO 157 9,0 C 0,0 km/h (0 Bft)
15.05.2015 02:00 11,0 C 10,8 C 88 % 1008,8 hPa 0,0 mm 1,0 km/h (0 Bft) W-SW 247 9,1 C 0,0 km/h (0 Bft)
15.05.2015 02:05 10,9 C 10,8 C 88 % 1008,8 hPa 0,0 mm 1,0 km/h (0 Bft) W 270 9,0 C 0,0 km/h (0 Bft)
15.05.2015 02:10 11,1 C 10,9 C 88 % 1008,8 hPa 0,0 mm 0,0 km/h (0 Bft) SO 135 9,2 C 0,0 km/h (0 Bft)
15.05.2015 02:15 11,1 C 10,9 C 88 % 1008,8 hPa 0,0 mm 0,0 km/h (0 Bft) SO 135 9,2 C 0,0 km/h (0 Bft)
15.05.2015 02:20 11,0 C 10,9 C 88 % 1008,8 hPa 0,0 mm 0,0 km/h (0 Bft) NW 315 9,1 C 0,0 km/h (0 Bft)
15.05.2015 02:25 10,9 C 10,8 C 88 % 1008,8 hPa 0,0 mm 0,3 km/h (0 Bft) NW 315 9,0 C 0,0 km/h (0 Bft)
15.05.2015 02:30 10,9 C 10,8 C 88 % 1008,8 hPa 0,0 mm 0,3 km/h (0 Bft) N-NW 337 9,0 C 0,0 km/h (0 Bft)
15.05.2015 02:35 11,0 C 10,9 C 87 % 1008,5 hPa 0,0 mm 0,0 km/h (0 Bft) W-NW 292 8,9 C 0,0 km/h (0 Bft)
15.05.2015 02:40 11,0 C 10,8 C 88 % 1008,5 hPa 0,0 mm 0,0 km/h (0 Bft) O-SO 112 9,1 C 0,0 km/h (0 Bft)
15.05.2015 02:45 11,0 C 10,9 C 88 % 1008,5 hPa 0,0 mm 0,5 km/h (0 Bft) S-SO 157 9,1 C 0,0 km/h (0 Bft)
15.05.2015 02:50 11,0 C 10,9 C 88 % 1008,5 hPa 0,0 mm 2,6 km/h (1 Bft) W-SW 247 9,1 C 7,5 km/h (2 Bft)
15.05.2015 02:55 10,9 C 10,8 C 88 % 1008,7 hPa 0,0 mm 2,6 km/h (1 Bft) S-SW 202 9,0 C 2,8 km/h (1 Bft)
15.05.2015 03:00 11,0 C 10,9 C 88 % 1008,7 hPa 0,0 mm 3,1 km/h (1 Bft) S 180 9,1 C 10,4 km/h (2 Bft)
15.05.2015 03:05 11,0 C 10,9 C 88 % 1008,7 hPa 0,0 mm 2,8 km/h (1 Bft) S 180 9,1 C 2,8 km/h (1 Bft)
15.05.2015 03:10 11,0 C 10,9 C 88 % 1008,7 hPa 0,0 mm 4,4 km/h (1 Bft) S-SW 202 9,1 C 13,5 km/h (3 Bft)
15.05.2015 03:15 11,1 C 10,9 C 88 % 1009,1 hPa 0,7 mm 6,5 km/h (2 Bft) W-NW 292 9,2 C 7,8 km/h (2 Bft)
15.05.2015 03:20 11,2 C 11,0 C 89 % 1009,1 hPa 0,0 mm 7,0 km/h (2 Bft) W 270 9,5 C 3,9 km/h (1 Bft)
15.05.2015 03:25 11,2 C 11,0 C 88 % 1009,1 hPa 0,0 mm 4,4 km/h (1 Bft) W-NW 292 9,3 C 0,0 km/h (0 Bft)
15.05.2015 03:30 11,2 C 11,1 C 88 % 1009,1 hPa 0,0 mm 2,6 km/h (1 Bft) W 270 9,3 C 11,9 km/h (2 Bft)
15.05.2015 03:35 11,3 C 11,1 C 89 % 1009,0 hPa 0,0 mm 2,6 km/h (1 Bft) N-NO 22 9,6 C 0,0 km/h (0 Bft)
15.05.2015 03:40 11,2 C 11,1 C 89 % 1009,0 hPa 0,7 mm 5,2 km/h (1 Bft) W-SW 247 9,5 C 23,0 km/h (4 Bft)
15.05.2015 03:45 11,1 C 11,0 C 89 % 1009,0 hPa 0,0 mm 5,2 km/h (1 Bft) W-SW 247 9,4 C 4,1 km/h (1 Bft)
15.05.2015 03:50 11,0 C 10,9 C 89 % 1009,0 hPa 0,0 mm 4,7 km/h (1 Bft) W-SW 247 9,3 C 0,0 km/h (0 Bft)
15.05.2015 03:55 11,0 C 10,9 C 89 % 1008,9 hPa 0,0 mm 3,9 km/h (1 Bft) W 270 9,3 C 3,4 km/h (1 Bft)
15.05.2015 04:00 10,9 C 10,8 C 89 % 1008,9 hPa 0,0 mm 3,6 km/h (1 Bft) S 180 9,2 C 8,5 km/h (2 Bft)
15.05.2015 04:05 10,9 C 10,7 C 89 % 1008,9 hPa 0,7 mm 4,4 km/h (1 Bft) W 270 9,2 C 5,7 km/h (1 Bft)
15.05.2015 04:10 10,8 C 10,7 C 89 % 1008,9 hPa 0,0 mm 3,4 km/h (1 Bft) N-NW 337 9,1 C 9,1 km/h (2 Bft)
15.05.2015 04:15 10,7 C 10,6 C 89 % 1009,1 hPa 0,0 mm 5,2 km/h (1 Bft) NW 315 9,0 C 10,4 km/h (2 Bft)
15.05.2015 04:20 10,7 C 10,4 C 89 % 1009,1 hPa 0,0 mm 8,5 km/h (2 Bft) S 180 9,0 C 12,2 km/h (2 Bft)
15.05.2015 04:25 10,6 C 10,4 C 89 % 1009,1 hPa 0,0 mm 8,5 km/h (2 Bft) S-SW 202 8,9 C 11,7 km/h (2 Bft)
15.05.2015 04:30 10,6 C 10,4 C 88 % 1009,1 hPa 0,0 mm 7,8 km/h (2 Bft) S 180 8,7 C 9,3 km/h (2 Bft)
15.05.2015 04:35 10,5 C 10,3 C 88 % 1009,2 hPa 0,0 mm 6,2 km/h (2 Bft) SW 225 8,6 C 3,9 km/h (1 Bft)
15.05.2015 04:40 10,4 C 10,3 C 88 % 1009,2 hPa 0,7 mm 3,1 km/h (1 Bft) S 180 8,5 C 5,2 km/h (1 Bft)
15.05.2015 04:45 10,4 C 10,2 C 88 % 1009,2 hPa 0,0 mm 2,1 km/h (1 Bft) SW 225 8,5 C 3,6 km/h (1 Bft)
15.05.2015 04:50 10,3 C 10,1 C 88 % 1009,2 hPa 0,0 mm 2,1 km/h (1 Bft) W-SW 247 8,4 C 11,1 km/h (2 Bft)
15.05.2015 04:55 10,3 C 10,1 C 88 % 1009,2 hPa 0,0 mm 1,8 km/h (1 Bft) S 180 8,4 C 0,0 km/h (0 Bft)
15.05.2015 05:00 10,3 C 10,1 C 88 % 1009,2 hPa 0,0 mm 2,1 km/h (1 Bft) S-SO 157 8,4 C 3,9 km/h (1 Bft)
15.05.2015 05:05 10,3 C 10,1 C 88 % 1009,2 hPa 0,0 mm 2,1 km/h (1 Bft) SW 225 8,4 C 0,0 km/h (0 Bft)
15.05.2015 05:10 10,2 C 10,0 C 88 % 1009,2 hPa 0,7 mm 1,8 km/h (1 Bft) O-SO 112 8,3 C 0,0 km/h (0 Bft)
15.05.2015 05:15 10,2 C 10,0 C 88 % 1009,3 hPa 0,0 mm 0,5 km/h (0 Bft) S-SO 157 8,3 C 3,6 km/h (1 Bft)
15.05.2015 05:20 10,2 C 10,0 C 88 % 1009,3 hPa 0,0 mm 2,1 km/h (1 Bft) W-SW 247 8,3 C 0,0 km/h (0 Bft)
15.05.2015 05:25 10,3 C 10,1 C 88 % 1009,3 hPa 0,0 mm 3,1 km/h (1 Bft) W-SW 247 8,4 C 7,5 km/h (2 Bft)
15.05.2015 05:30 10,2 C 10,0 C 88 % 1009,3 hPa 0,0 mm 3,4 km/h (1 Bft) N-NW 337 8,3 C 7,3 km/h (2 Bft)
15.05.2015 05:35 10,1 C 10,0 C 88 % 1009,5 hPa 0,7 mm 4,7 km/h (1 Bft) NW 315 8,2 C 14,0 km/h (3 Bft)
15.05.2015 05:40 9,8 C 9,7 C 88 % 1009,5 hPa 0,0 mm 4,7 km/h (1 Bft) W-NW 292 7,9 C 5,2 km/h (1 Bft)
15.05.2015 05:45 9,6 C 9,5 C 88 % 1009,5 hPa 0,0 mm 5,4 km/h (1 Bft) W-SW 247 7,7 C 6,0 km/h (2 Bft)
15.05.2015 05:50 9,4 C 9,3 C 88 % 1009,5 hPa 0,0 mm 6,0 km/h (2 Bft) NW 315 7,5 C 3,4 km/h (1 Bft)
15.05.2015 05:55 9,4 C 9,2 C 88 % 1009,6 hPa 0,0 mm 5,7 km/h (1 Bft) W 270 7,5 C 6,0 km/h (2 Bft)
15.05.2015 06:00 9,3 C 9,1 C 88 % 1009,6 hPa 0,7 mm 3,4 km/h (1 Bft) NW 315 7,4 C 0,0 km/h (0 Bft)
15.05.2015 06:05 9,2 C 9,1 C 88 % 1009,6 hPa 0,0 mm 3,6 km/h (1 Bft) NW 315 7,3 C 6,2 km/h (2 Bft)
15.05.2015 06:10 9,2 C 9,0 C 88 % 1009,6 hPa 0,0 mm 3,6 km/h (1 Bft) SW 225 7,3 C 3,1 km/h (1 Bft)
15.05.2015 06:15 9,1 C 8,9 C 88 % 1009,5 hPa 0,0 mm 4,1 km/h (1 Bft) O 90 7,2 C 5,4 km/h (1 Bft)
15.05.2015 06:20 8,9 C 8,8 C 88 % 1009,5 hPa 0,0 mm 5,2 km/h (1 Bft) W 270 7,0 C 8,5 km/h (2 Bft)
15.05.2015 06:25 8,9 C 8,7 C 88 % 1009,5 hPa 0,0 mm 4,7 km/h (1 Bft) NW 315 7,0 C 3,1 km/h (1 Bft)
15.05.2015 06:30 8,8 C 8,6 C 88 % 1009,5 hPa 0,0 mm 4,9 km/h (1 Bft) S 180 6,9 C 7,3 km/h (2 Bft)
15.05.2015 06:35 8,8 C 8,6 C 88 % 1009,7 hPa 0,7 mm 4,7 km/h (1 Bft) SW 225 6,9 C 7,3 km/h (2 Bft)
15.05.2015 06:40 8,7 C 8,5 C 88 % 1009,7 hPa 0,0 mm 3,6 km/h (1 Bft) W 270 6,8 C 3,9 km/h (1 Bft)
15.05.2015 06:45 8,6 C 8,4 C 88 % 1009,7 hPa 0,0 mm 2,3 km/h (1 Bft) S 180 6,7 C 5,4 km/h (1 Bft)
15.05.2015 06:50 8,6 C 8,4 C 88 % 1009,7 hPa 0,0 mm 3,1 km/h (1 Bft) NW 315 6,7 C 4,4 km/h (1 Bft)
15.05.2015 06:55 8,5 C 8,3 C 88 % 1009,6 hPa 0,0 mm 4,1 km/h (1 Bft) S-SO 157 6,6 C 3,9 km/h (1 Bft)
15.05.2015 07:00 8,5 C 8,3 C 88 % 1009,6 hPa 0,0 mm 2,6 km/h (1 Bft) W-SW 247 6,6 C 0,0 km/h (0 Bft)
15.05.2015 07:05 8,5 C 8,3 C 88 % 1009,6 hPa 0,0 mm 1,8 km/h (1 Bft) SW 225 6,6 C 0,0 km/h (0 Bft)
15.05.2015 07:10 8,4 C 8,2 C 88 % 1009,6 hPa 0,7 mm 2,3 km/h (1 Bft) S 180 6,5 C 3,9 km/h (1 Bft)
15.05.2015 07:15 8,3 C 8,1 C 88 % 1009,8 hPa 0,0 mm 3,9 km/h (1 Bft) S 180 6,4 C 4,1 km/h (1 Bft)
15.05.2015 07:20 8,3 C 8,1 C 88 % 1009,8 hPa 0,0 mm 3,1 km/h (1 Bft) W-SW 247 6,4 C 0,0 km/h (0 Bft)
15.05.2015 07:25 8,3 C 8,1 C 88 % 1009,8 hPa 0,0 mm 2,6 km/h (1 Bft) W-NW 292 6,4 C 4,7 km/h (1 Bft)
15.05.2015 07:30 8,3 C 8,1 C 88 % 1009,8 hPa 0,0 mm 2,6 km/h (1 Bft) W 270 6,4 C 0,0 km/h (0 Bft)
15.05.2015 07:35 8,3 C 8,1 C 88 % 1009,9 hPa 0,0 mm 1,6 km/h (1 Bft) NW 315 6,4 C 0,0 km/h (0 Bft)
15.05.2015 07:40 8,3 C 8,1 C 88 % 1009,9 hPa 0,7 mm 1,0 km/h (0 Bft) NW 315 6,4 C 7,8 km/h (2 Bft)
15.05.2015 07:45 8,2 C 8,0 C 88 % 1009,9 hPa 0,0 mm 3,1 km/h (1 Bft) W-NW 292 6,3 C 5,4 km/h (1 Bft)
15.05.2015 07:50 8,2 C 8,0 C 88 % 1009,9 hPa 0,0 mm 3,6 km/h (1 Bft) W 270 6,3 C 0,0 km/h (0 Bft)
15.05.2015 07:55 8,2 C 8,0 C 88 % 1009,8 hPa 0,0 mm 2,8 km/h (1 Bft) O-NO 67 6,3 C 4,7 km/h (1 Bft)
15.05.2015 08:00 8,2 C 8,0 C 88 % 1009,8 hPa 0,7 mm 1,8 km/h (1 Bft) W-SW 247 6,3 C 2,6 km/h (1 Bft)
15.05.2015 08:05 8,2 C 8,0 C 88 % 1009,8 hPa 0,0 mm 1,6 km/h (1 Bft) NW 315 6,3 C 6,2 km/h (2 Bft)
15.05.2015 08:10 8,1 C 8,0 C 85 % 1009,8 hPa 0,0 mm 1,6 km/h (1 Bft) S 180 5,7 C 5,4 km/h (1 Bft)
15.05.2015 08:15 8,1 C 8,0 C 85 % 1009,6 hPa 0,0 mm 1,6 km/h (1 Bft) NW 315 5,7 C 0,0 km/h (0 Bft)
15.05.2015 08:20 8,1 C 8,0 C 85 % 1009,6 hPa 0,0 mm 1,3 km/h (1 Bft) W 270 5,7 C 6,2 km/h (2 Bft)
15.05.2015 08:25 8,2 C 8,0 C 88 % 1009,6 hPa 0,0 mm 0,8 km/h (0 Bft) W-SW 247 6,3 C 2,8 km/h (1 Bft)
15.05.2015 08:30 8,1 C 8,0 C 85 % 1009,6 hPa 0,0 mm 2,6 km/h (1 Bft) NW 315 5,7 C 0,0 km/h (0 Bft)
15.05.2015 08:35 8,1 C 8,0 C 85 % 1009,6 hPa 0,7 mm 3,1 km/h (1 Bft) SW 225 5,7 C 0,0 km/h (0 Bft)
15.05.2015 08:40 8,1 C 8,0 C 85 % 1009,6 hPa 0,0 mm 2,8 km/h (1 Bft) W 270 5,7 C 3,9 km/h (1 Bft)
15.05.2015 08:45 8,2 C 8,1 C 88 % 1009,6 hPa 0,0 mm 2,3 km/h (1 Bft) W-NW 292 6,3 C 4,7 km/h (1 Bft)
15.05.2015 08:50 8,2 C 8,1 C 88 % 1009,6 hPa 0,0 mm 2,3 km/h (1 Bft) W-SW 247 6,3 C 0,0 km/h (0 Bft)
15.05.2015 08:55 8,2 C 8,1 C 88 % 1009,9 hPa 0,0 mm 2,8 km/h (1 Bft) NW 315 6,3 C 3,6 km/h (1 Bft)
15.05.2015 09:00 8,2 C 8,1 C 88 % 1009,9 hPa 0,0 mm 4,7 km/h (1 Bft) W-SW 247 6,3 C 7,3 km/h (2 Bft)
15.05.2015 09:05 8,2 C 8,1 C 88 % 1009,9 hPa 0,7 mm 5,2 km/h (1 Bft) W-SW 247 6,3 C 9,3 km/h (2 Bft)
15.05.2015 09:10 8,1 C 8,0 C 88 % 1009,9 hPa 0,0 mm 4,1 km/h (1 Bft) O-NO 67 6,2 C 0,0 km/h (0 Bft)
15.05.2015 09:15 8,2 C 8,0 C 88 % 1009,9 hPa 0,0 mm 2,6 km/h (1 Bft) W-NW 292 6,3 C 7,0 km/h (2 Bft)
15.05.2015 09:20 8,1 C 8,0 C 85 % 1009,9 hPa 0,0 mm 3,1 km/h (1 Bft) W-SW 247 5,7 C 12,4 km/h (3 Bft)
15.05.2015 09:25 8,1 C 8,1 C 85 % 1009,9 hPa 0,0 mm 4,1 km/h (1 Bft) W-SW 247 5,7 C 6,2 km/h (2 Bft)
15.05.2015 09:30 8,1 C 8,1 C 85 % 1009,9 hPa 0,0 mm 2,6 km/h (1 Bft) O-NO 67 5,7 C 0,0 km/h (0 Bft)
15.05.2015 09:35 8,1 C 8,0 C 88 % 1010,1 hPa 0,0 mm 1,8 km/h (1 Bft) S-SW 202 6,2 C 3,6 km/h (1 Bft)
15.05.2015 09:40 8,1 C 8,0 C 88 % 1010,1 hPa 0,7 mm 2,8 km/h (1 Bft) W-NW 292 6,2 C 5,2 km/h (1 Bft)
15.05.2015 09:45 8,1 C 8,0 C 88 % 1010,1 hPa 0,0 mm 4,1 km/h (1 Bft) W 270 6,2 C 5,4 km/h (1 Bft)
15.05.2015 09:50 8,0 C 7,9 C 88 % 1010,1 hPa 0,0 mm 5,7 km/h (1 Bft) NW 315 6,1 C 6,2 km/h (2 Bft)
15.05.2015 09:55 8,1 C 8,0 C 85 % 1010,2 hPa 0,0 mm 4,4 km/h (1 Bft) O-NO 67 5,7 C 0,0 km/h (0 Bft)
15.05.2015 10:00 8,1 C 8,1 C 85 % 1010,2 hPa 0,7 mm 1,8 km/h (1 Bft) W-NW 292 5,7 C 0,0 km/h (0 Bft)
15.05.2015 10:05 8,1 C 8,1 C 85 % 1010,2 hPa 0,0 mm 2,6 km/h (1 Bft) W-SW 247 5,7 C 6,5 km/h (2 Bft)
15.05.2015 10:10 8,1 C 8,1 C 85 % 1010,2 hPa 0,0 mm 3,4 km/h (1 Bft) W 270 5,7 C 3,4 km/h (1 Bft)
15.05.2015 10:15 8,1 C 8,1 C 85 % 1010,2 hPa 0,0 mm 3,1 km/h (1 Bft) SO 135 5,7 C 0,0 km/h (0 Bft)
15.05.2015 10:20 8,2 C 8,3 C 85 % 1010,2 hPa 0,7 mm 0,8 km/h (0 Bft) N-NW 337 5,8 C 0,0 km/h (0 Bft)
15.05.2015 10:25 8,2 C 8,2 C 85 % 1010,2 hPa 0,0 mm 1,0 km/h (0 Bft) S 180 5,8 C 0,0 km/h (0 Bft)
15.05.2015 10:30 8,1 C 8,1 C 85 % 1010,2 hPa 0,0 mm 1,6 km/h (1 Bft) SW 225 5,7 C 3,4 km/h (1 Bft)
15.05.2015 10:35 8,1 C 8,2 C 85 % 1010,6 hPa 0,0 mm 1,3 km/h (1 Bft) W 270 5,7 C 0,0 km/h (0 Bft)
15.05.2015 10:40 8,2 C 8,3 C 85 % 1010,6 hPa 0,0 mm 1,3 km/h (1 Bft) W 270 5,8 C 0,0 km/h (0 Bft)
15.05.2015 10:45 8,2 C 8,3 C 85 % 1010,6 hPa 0,7 mm 1,8 km/h (1 Bft) NW 315 5,8 C 6,7 km/h (2 Bft)
15.05.2015 10:50 8,3 C 8,5 C 85 % 1010,6 hPa 0,0 mm 2,1 km/h (1 Bft) W 270 5,9 C 4,9 km/h (1 Bft)
15.05.2015 10:55 8,4 C 8,7 C 85 % 1010,7 hPa 0,0 mm 1,8 km/h (1 Bft) W-SW 247 6,0 C 0,0 km/h (0 Bft)
15.05.2015 11:00 8,5 C 8,8 C 85 % 1010,7 hPa 0,0 mm 1,8 km/h (1 Bft) W 270 6,1 C 3,1 km/h (1 Bft)
15.05.2015 11:05 8,6 C 8,9 C 85 % 1010,7 hPa 0,7 mm 1,6 km/h (1 Bft) W-NW 292 6,2 C 0,0 km/h (0 Bft)
15.05.2015 11:10 8,6 C 8,8 C 85 % 1010,7 hPa 0,0 mm 1,3 km/h (1 Bft) W-NW 292 6,2 C 0,0 km/h (0 Bft)
15.05.2015 11:15 8,6 C 8,9 C 85 % 1010,8 hPa 0,0 mm 1,0 km/h (0 Bft) W 270 6,2 C 0,0 km/h (0 Bft)
15.05.2015 11:20 8,8 C 9,0 C 85 % 1010,8 hPa 0,0 mm 1,3 km/h (1 Bft) W-NW 292 6,4 C 0,0 km/h (0 Bft)
15.05.2015 11:25 8,7 C 8,9 C 85 % 1010,8 hPa 0,0 mm 1,3 km/h (1 Bft) W-SW 247 6,3 C 6,5 km/h (2 Bft)
15.05.2015 11:30 8,8 C 9,0 C 85 % 1010,8 hPa 0,7 mm 0,8 km/h (0 Bft) W-NW 292 6,4 C 0,0 km/h (0 Bft)
15.05.2015 11:35 8,8 C 9,0 C 85 % 1011,2 hPa 0,0 mm 1,0 km/h (0 Bft) W 270 6,4 C 0,0 km/h (0 Bft)
15.05.2015 11:40 8,7 C 9,0 C 85 % 1011,2 hPa 0,0 mm 0,5 km/h (0 Bft) S-SW 202 6,3 C 0,0 km/h (0 Bft)
15.05.2015 11:45 8,7 C 8,8 C 85 % 1011,2 hPa 0,0 mm 1,0 km/h (0 Bft) W 270 6,3 C 3,4 km/h (1 Bft)
15.05.2015 11:50 8,7 C 8,9 C 85 % 1011,2 hPa 0,0 mm 1,3 km/h (1 Bft) S-SW 202 6,3 C 0,0 km/h (0 Bft)
15.05.2015 11:55 8,8 C 9,0 C 85 % 1010,9 hPa 0,0 mm 0,5 km/h (0 Bft) N-NW 337 6,4 C 0,0 km/h (0 Bft)
15.05.2015 12:00 8,9 C 9,2 C 85 % 1010,9 hPa 0,0 mm 1,6 km/h (1 Bft) W-NW 292 6,5 C 3,9 km/h (1 Bft)
15.05.2015 12:05 8,9 C 9,2 C 85 % 1010,9 hPa 0,0 mm 2,6 km/h (1 Bft) W 270 6,5 C 4,1 km/h (1 Bft)
15.05.2015 12:10 8,9 C 9,1 C 85 % 1010,9 hPa 0,7 mm 1,6 km/h (1 Bft) SW 225 6,5 C 0,0 km/h (0 Bft)
15.05.2015 12:15 8,9 C 9,0 C 85 % 1010,8 hPa 0,0 mm 0,3 km/h (0 Bft) S 180 6,5 C 4,1 km/h (1 Bft)
15.05.2015 12:20 8,8 C 8,9 C 85 % 1010,8 hPa 0,0 mm 0,5 km/h (0 Bft) W 270 6,4 C 0,0 km/h (0 Bft)
15.05.2015 12:25 8,9 C 9,0 C 85 % 1010,8 hPa 0,0 mm 0,5 km/h (0 Bft) NW 315 6,5 C 0,0 km/h (0 Bft)
15.05.2015 12:30 9,1 C 9,4 C 85 % 1010,8 hPa 0,0 mm 0,8 km/h (0 Bft) W 270 6,7 C 0,0 km/h (0 Bft)
15.05.2015 12:35 9,1 C 9,5 C 85 % 1010,8 hPa 0,0 mm 1,8 km/h (1 Bft) W 270 6,7 C 6,2 km/h (2 Bft)
15.05.2015 12:40 9,2 C 9,6 C 85 % 1010,8 hPa 0,0 mm 2,8 km/h (1 Bft) W-NW 292 6,8 C 2,8 km/h (1 Bft)
15.05.2015 12:45 9,3 C 9,6 C 85 % 1010,8 hPa 0,0 mm 2,1 km/h (1 Bft) S 180 6,9 C 0,0 km/h (0 Bft)
15.05.2015 12:50 9,1 C 9,2 C 84 % 1010,8 hPa 0,0 mm 1,8 km/h (1 Bft) NW 315 6,5 C 4,7 km/h (1 Bft)
15.05.2015 12:55 9,1 C 9,2 C 84 % 1010,9 hPa 0,0 mm 1,3 km/h (1 Bft) S 180 6,5 C 0,0 km/h (0 Bft)
15.05.2015 13:00 9,1 C 9,1 C 84 % 1010,9 hPa 0,7 mm 0,3 km/h (0 Bft) SW 225 6,5 C 0,0 km/h (0 Bft)
15.05.2015 13:05 9,0 C 9,0 C 84 % 1010,9 hPa 0,0 mm 0,3 km/h (0 Bft) W-SW 247 6,4 C 0,0 km/h (0 Bft)
15.05.2015 13:10 8,9 C 8,8 C 86 % 1010,9 hPa 0,0 mm 0,3 km/h (0 Bft) SW 225 6,7 C 0,0 km/h (0 Bft)
15.05.2015 13:15 8,8 C 8,8 C 85 % 1011,2 hPa 0,0 mm 0,0 km/h (0 Bft) S 180 6,4 C 0,0 km/h (0 Bft)
15.05.2015 13:20 8,8 C 8,8 C 85 % 1011,2 hPa 0,0 mm 0,0 km/h (0 Bft) W-SW 247 6,4 C 0,0 km/h (0 Bft)
15.05.2015 13:25 8,8 C 8,8 C 85 % 1011,2 hPa 0,0 mm 0,3 km/h (0 Bft) NW 315 6,4 C 0,0 km/h (0 Bft)
15.05.2015 13:30 8,9 C 8,9 C 85 % 1011,2 hPa 0,7 mm 0,3 km/h (0 Bft) W-NW 292 6,5 C 0,0 km/h (0 Bft)
15.05.2015 13:35 8,9 C 9,0 C 85 % 1011,3 hPa 0,0 mm 0,8 km/h (0 Bft) W 270 6,5 C 0,0 km/h (0 Bft)
15.05.2015 13:40 8,9 C 9,1 C 85 % 1011,3 hPa 0,7 mm 0,8 km/h (0 Bft) W-NW 292 6,5 C 0,0 km/h (0 Bft)
15.05.2015 13:45 9,0 C 9,2 C 85 % 1011,3 hPa 0,0 mm 2,3 km/h (1 Bft) W 270 6,6 C 5,7 km/h (1 Bft)
15.05.2015 13:50 9,0 C 9,1 C 85 % 1011,3 hPa 0,0 mm 3,1 km/h (1 Bft) W-NW 292 6,6 C 4,4 km/h (1 Bft)
15.05.2015 13:55 8,9 C 8,9 C 85 % 1011,7 hPa 0,0 mm 3,4 km/h (1 Bft) W 270 6,5 C 6,0 km/h (2 Bft)
15.05.2015 14:00 8,8 C 8,8 C 85 % 1011,7 hPa 0,7 mm 2,6 km/h (1 Bft) W 270 6,4 C 0,0 km/h (0 Bft)
15.05.2015 14:05 8,7 C 8,7 C 85 % 1011,7 hPa 0,0 mm 2,3 km/h (1 Bft) W 270 6,3 C 5,7 km/h (1 Bft)
15.05.2015 14:10 8,6 C 8,5 C 85 % 1011,7 hPa 0,0 mm 3,4 km/h (1 Bft) W 270 6,2 C 3,6 km/h (1 Bft)
15.05.2015 14:15 8,6 C 8,5 C 85 % 1011,4 hPa 0,0 mm 3,1 km/h (1 Bft) NW 315 6,2 C 0,0 km/h (0 Bft)
15.05.2015 14:20 8,7 C 8,7 C 85 % 1011,4 hPa 0,7 mm 1,6 km/h (1 Bft) W-NW 292 6,3 C 4,4 km/h (1 Bft)
15.05.2015 14:25 8,7 C 8,8 C 85 % 1011,4 hPa 0,0 mm 1,0 km/h (0 Bft) W 270 6,3 C 0,0 km/h (0 Bft)
15.05.2015 14:30 8,8 C 9,2 C 85 % 1011,4 hPa 0,0 mm 1,6 km/h (1 Bft) W-NW 292 6,4 C 0,0 km/h (0 Bft)
15.05.2015 14:35 9,0 C 9,4 C 85 % 1011,9 hPa 0,7 mm 1,3 km/h (1 Bft) N-NO 22 6,6 C 3,9 km/h (1 Bft)
15.05.2015 14:40 9,1 C 9,6 C 85 % 1011,9 hPa 0,0 mm 1,3 km/h (1 Bft) N-NW 337 6,7 C 2,6 km/h (1 Bft)
15.05.2015 14:45 9,2 C 9,7 C 85 % 1011,9 hPa 0,0 mm 1,6 km/h (1 Bft) W-NW 292 6,8 C 0,0 km/h (0 Bft)
15.05.2015 14:50 9,3 C 9,8 C 85 % 1011,9 hPa 0,0 mm 0,8 km/h (0 Bft) N-NO 22 6,9 C 0,0 km/h (0 Bft)
15.05.2015 14:55 9,4 C 9,8 C 85 % 1011,8 hPa 0,0 mm 0,3 km/h (0 Bft) W-NW 292 7,0 C 0,0 km/h (0 Bft)
15.05.2015 15:00 9,4 C 9,8 C 85 % 1011,8 hPa 0,0 mm 0,0 km/h (0 Bft) NW 315 7,0 C 0,0 km/h (0 Bft)
15.05.2015 15:05 9,4 C 9,7 C 85 % 1011,8 hPa 0,0 mm 0,3 km/h (0 Bft) S 180 7,0 C 0,0 km/h (0 Bft)
15.05.2015 15:10 9,3 C 9,6 C 85 % 1011,8 hPa 0,0 mm 0,5 km/h (0 Bft) NW 315 6,9 C 3,1 km/h (1 Bft)
15.05.2015 15:15 9,3 C 9,4 C 85 % 1011,9 hPa 0,0 mm 0,5 km/h (0 Bft) W 270 6,9 C 0,0 km/h (0 Bft)
15.05.2015 15:20 9,2 C 9,3 C 85 % 1011,9 hPa 0,0 mm 0,3 km/h (0 Bft) W 270 6,8 C 0,0 km/h (0 Bft)
15.05.2015 15:25 9,1 C 9,2 C 85 % 1011,9 hPa 0,0 mm 0,0 km/h (0 Bft) W-NW 292 6,7 C 2,8 km/h (1 Bft)
15.05.2015 15:30 9,1 C 9,2 C 85 % 1011,9 hPa 0,0 mm 1,3 km/h (1 Bft) N-NW 337 6,7 C 3,6 km/h (1 Bft)
15.05.2015 15:35 9,2 C 9,2 C 85 % 1011,9 hPa 0,0 mm 2,1 km/h (1 Bft) NW 315 6,8 C 3,6 km/h (1 Bft)
15.05.2015 15:40 9,2 C 9,2 C 85 % 1011,9 hPa 0,0 mm 1,3 km/h (1 Bft) N-NW 337 6,8 C 0,0 km/h (0 Bft)
15.05.2015 15:45 9,1 C 9,1 C 85 % 1011,9 hPa 0,0 mm 0,5 km/h (0 Bft) NW 315 6,7 C 0,0 km/h (0 Bft)
15.05.2015 15:50 9,1 C 9,2 C 85 % 1011,9 hPa 0,0 mm 0,5 km/h (0 Bft) W-NW 292 6,7 C 0,0 km/h (0 Bft)
15.05.2015 15:55 9,1 C 9,1 C 85 % 1012,1 hPa 0,0 mm 0,0 km/h (0 Bft) W 270 6,7 C 0,0 km/h (0 Bft)
15.05.2015 16:00 9,0 C 9,0 C 85 % 1012,1 hPa 0,0 mm 0,8 km/h (0 Bft) S 180 6,6 C 0,0 km/h (0 Bft)
15.05.2015 16:05 8,9 C 8,9 C 85 % 1012,1 hPa 0,0 mm 0,8 km/h (0 Bft) NO 45 6,5 C 0,0 km/h (0 Bft)
15.05.2015 16:10 8,9 C 9,0 C 85 % 1012,1 hPa 0,0 mm 0,3 km/h (0 Bft) NW 315 6,5 C 0,0 km/h (0 Bft)
15.05.2015 16:15 9,0 C 9,0 C 85 % 1012,4 hPa 0,0 mm 0,3 km/h (0 Bft) SW 225 6,6 C 0,0 km/h (0 Bft)
15.05.2015 16:20 9,0 C 9,0 C 85 % 1012,4 hPa 0,0 mm 0,3 km/h (0 Bft) W 270 6,6 C 0,0 km/h (0 Bft)
15.05.2015 16:25 9,0 C 9,0 C 85 % 1012,4 hPa 0,0 mm 0,0 km/h (0 Bft) S-SO 157 6,6 C 0,0 km/h (0 Bft)
15.05.2015 16:30 8,9 C 8,9 C 85 % 1012,4 hPa 0,0 mm 0,0 km/h (0 Bft) O-SO 112 6,5 C 0,0 km/h (0 Bft)
15.05.2015 16:35 8,9 C 8,9 C 85 % 1012,6 hPa 0,7 mm 0,0 km/h (0 Bft) S-SO 157 6,5 C 0,0 km/h (0 Bft)
15.05.2015 16:40 8,9 C 8,9 C 85 % 1012,6 hPa 0,0 mm 0,0 km/h (0 Bft) SW 225 6,5 C 0,0 km/h (0 Bft)
15.05.2015 16:45 8,9 C 9,0 C 86 % 1012,6 hPa 0,0 mm 0,0 km/h (0 Bft) S-SO 157 6,7 C 0,0 km/h (0 Bft)
15.05.2015 16:50 9,0 C 9,0 C 85 % 1012,6 hPa 0,0 mm 0,0 km/h (0 Bft) NW 315 6,6 C 0,0 km/h (0 Bft)
15.05.2015 16:55 9,0 C 9,1 C 85 % 1012,8 hPa 0,0 mm 0,0 km/h (0 Bft) W-NW 292 6,6 C 0,0 km/h (0 Bft)
15.05.2015 17:00 9,0 C 9,1 C 85 % 1012,8 hPa 0,0 mm 0,0 km/h (0 Bft) W 270 6,6 C 0,0 km/h (0 Bft)
15.05.2015 17:05 9,0 C 9,1 C 85 % 1012,8 hPa 0,0 mm 0,0 km/h (0 Bft) W-NW 292 6,6 C 0,0 km/h (0 Bft)
15.05.2015 17:10 9,1 C 9,1 C 86 % 1012,8 hPa 0,0 mm 0,0 km/h (0 Bft) NW 315 6,9 C 0,0 km/h (0 Bft)
15.05.2015 17:15 9,1 C 9,1 C 86 % 1012,9 hPa 0,0 mm 0,0 km/h (0 Bft) W-SW 247 6,9 C 0,0 km/h (0 Bft)
15.05.2015 17:20 9,1 C 9,1 C 86 % 1012,9 hPa 0,7 mm 0,3 km/h (0 Bft) W 270 6,9 C 3,1 km/h (1 Bft)
15.05.2015 17:25 9,1 C 9,1 C 87 % 1012,9 hPa 0,0 mm 0,3 km/h (0 Bft) W 270 7,1 C 0,0 km/h (0 Bft)
15.05.2015 17:30 9,1 C 9,1 C 86 % 1012,9 hPa 0,0 mm 0,3 km/h (0 Bft) W-SW 247 6,9 C 0,0 km/h (0 Bft)
15.05.2015 17:35 9,1 C 9,2 C 86 % 1012,9 hPa 0,0 mm 0,0 km/h (0 Bft) NW 315 6,9 C 0,0 km/h (0 Bft)
15.05.2015 17:40 9,1 C 9,1 C 86 % 1012,9 hPa 0,0 mm 0,5 km/h (0 Bft) W 270 6,9 C 0,0 km/h (0 Bft)
15.05.2015 17:45 9,1 C 9,1 C 86 % 1012,9 hPa 0,0 mm 0,5 km/h (0 Bft) W-NW 292 6,9 C 0,0 km/h (0 Bft)
15.05.2015 17:50 9,2 C 9,2 C 86 % 1012,9 hPa 0,0 mm 0,5 km/h (0 Bft) NW 315 7,0 C 0,0 km/h (0 Bft)
15.05.2015 17:55 9,2 C 9,1 C 88 % 1013,2 hPa 0,7 mm 0,5 km/h (0 Bft) N-NW 337 7,3 C 0,0 km/h (0 Bft)
15.05.2015 18:00 9,1 C 9,1 C 86 % 1013,2 hPa 0,0 mm 2,1 km/h (1 Bft) W 270 6,9 C 4,9 km/h (1 Bft)
15.05.2015 18:05 9,1 C 9,0 C 88 % 1013,2 hPa 0,0 mm 3,1 km/h (1 Bft) NW 315 7,2 C 3,1 km/h (1 Bft)
15.05.2015 18:10 9,0 C 8,9 C 88 % 1013,2 hPa 0,0 mm 3,4 km/h (1 Bft) NW 315 7,1 C 0,0 km/h (0 Bft)
15.05.2015 18:15 9,0 C 8,9 C 88 % 1013,4 hPa 0,0 mm 2,1 km/h (1 Bft) W-SW 247 7,1 C 0,0 km/h (0 Bft)
15.05.2015 18:20 9,0 C 9,0 C 86 % 1013,4 hPa 0,0 mm 0,5 km/h (0 Bft) W 270 6,8 C 0,0 km/h (0 Bft)
15.05.2015 18:25 9,0 C 8,9 C 88 % 1013,4 hPa 0,0 mm 0,5 km/h (0 Bft) W 270 7,1 C 0,0 km/h (0 Bft)
15.05.2015 18:30 9,0 C 8,9 C 88 % 1013,4 hPa 0,0 mm 0,5 km/h (0 Bft) W-SW 247 7,1 C 0,0 km/h (0 Bft)
15.05.2015 18:35 9,0 C 9,0 C 86 % 1013,4 hPa 0,7 mm 0,0 km/h (0 Bft) W-SW 247 6,8 C 0,0 km/h (0 Bft)
15.05.2015 18:40 9,0 C 9,0 C 86 % 1013,4 hPa 0,0 mm 0,0 km/h (0 Bft) W 270 6,8 C 0,0 km/h (0 Bft)
15.05.2015 18:45 9,0 C 9,0 C 86 % 1013,4 hPa 0,0 mm 0,0 km/h (0 Bft) W-SW 247 6,8 C 0,0 km/h (0 Bft)
15.05.2015 18:50 9,1 C 9,1 C 86 % 1013,4 hPa 0,0 mm 0,0 km/h (0 Bft) W-NW 292 6,9 C 0,0 km/h (0 Bft)
15.05.2015 18:55 9,1 C 9,1 C 86 % 1013,5 hPa 0,0 mm 0,0 km/h (0 Bft) W-SW 247 6,9 C 0,0 km/h (0 Bft)
15.05.2015 19:00 9,1 C 9,1 C 86 % 1013,5 hPa 0,0 mm 0,0 km/h (0 Bft) W-SW 247 6,9 C 0,0 km/h (0 Bft)
15.05.2015 19:05 9,1 C 9,1 C 86 % 1013,5 hPa 0,7 mm 0,3 km/h (0 Bft) SO 135 6,9 C 0,0 km/h (0 Bft)
15.05.2015 19:10 9,1 C 9,1 C 86 % 1013,5 hPa 0,0 mm 0,3 km/h (0 Bft) W-NW 292 6,9 C 0,0 km/h (0 Bft)
15.05.2015 19:15 9,1 C 9,1 C 86 % 1013,9 hPa 0,0 mm 0,0 km/h (0 Bft) W-NW 292 6,9 C 0,0 km/h (0 Bft)
15.05.2015 19:20 9,1 C 9,1 C 87 % 1013,9 hPa 0,0 mm 0,0 km/h (0 Bft) W-SW 247 7,1 C 0,0 km/h (0 Bft)
15.05.2015 19:25 9,2 C 9,2 C 87 % 1013,9 hPa 0,0 mm 0,3 km/h (0 Bft) S-SW 202 7,2 C 0,0 km/h (0 Bft)
15.05.2015 19:30 9,2 C 9,2 C 87 % 1013,9 hPa 0,0 mm 0,3 km/h (0 Bft) S-SO 157 7,2 C 0,0 km/h (0 Bft)
15.05.2015 19:35 9,2 C 9,2 C 87 % 1014,1 hPa 0,0 mm 0,0 km/h (0 Bft) S 180 7,2 C 0,0 km/h (0 Bft)
15.05.2015 19:40 9,2 C 9,2 C 87 % 1014,1 hPa 0,0 mm 0,0 km/h (0 Bft) W-SW 247 7,2 C 0,0 km/h (0 Bft)
15.05.2015 19:45 9,3 C 9,3 C 87 % 1014,1 hPa 0,0 mm 0,0 km/h (0 Bft) S-SW 202 7,2 C 0,0 km/h (0 Bft)
15.05.2015 19:50 9,3 C 9,3 C 87 % 1014,1 hPa 0,0 mm 0,0 km/h (0 Bft) W-SW 247 7,2 C 0,0 km/h (0 Bft)
15.05.2015 19:55 9,3 C 9,3 C 87 % 1014,5 hPa 0,0 mm 0,0 km/h (0 Bft) S-SW 202 7,2 C 0,0 km/h (0 Bft)
15.05.2015 20:00 9,4 C 9,3 C 89 % 1014,5 hPa 0,0 mm 0,3 km/h (0 Bft) S 180 7,7 C 0,0 km/h (0 Bft)
15.05.2015 20:05 9,4 C 9,4 C 87 % 1014,5 hPa 0,0 mm 0,5 km/h (0 Bft) S-SO 157 7,3 C 0,0 km/h (0 Bft)
15.05.2015 20:10 9,5 C 9,5 C 87 % 1014,5 hPa 0,0 mm 0,3 km/h (0 Bft) W 270 7,4 C 0,0 km/h (0 Bft)
15.05.2015 20:15 9,5 C 9,5 C 87 % 1014,7 hPa 0,0 mm 0,0 km/h (0 Bft) S-SO 157 7,4 C 0,0 km/h (0 Bft)
15.05.2015 20:20 9,5 C 9,5 C 87 % 1014,7 hPa 0,0 mm 0,0 km/h (0 Bft) S-SO 157 7,4 C 0,0 km/h (0 Bft)
15.05.2015 20:25 9,5 C 9,5 C 87 % 1014,7 hPa 0,0 mm 0,0 km/h (0 Bft) S-SO 157 7,4 C 0,0 km/h (0 Bft)
15.05.2015 20:30 9,6 C 9,5 C 90 % 1014,7 hPa 0,0 mm 0,0 km/h (0 Bft) W 270 8,0 C 0,0 km/h (0 Bft)
15.05.2015 20:35 9,6 C 9,6 C 87 % 1014,8 hPa 0,0 mm 0,0 km/h (0 Bft) SW 225 7,5 C 0,0 km/h (0 Bft)
15.05.2015 20:40 9,6 C 9,6 C 87 % 1014,8 hPa 0,0 mm 0,0 km/h (0 Bft) W-SW 247 7,5 C 0,0 km/h (0 Bft)
15.05.2015 20:45 9,7 C 9,6 C 90 % 1014,8 hPa 0,0 mm 0,0 km/h (0 Bft) W-SW 247 8,1 C 0,0 km/h (0 Bft)
15.05.2015 20:50 9,7 C 9,7 C 87 % 1014,8 hPa 0,0 mm 0,3 km/h (0 Bft) W-SW 247 7,6 C 4,4 km/h (1 Bft)
15.05.2015 20:55 9,7 C 9,7 C 90 % 1015,0 hPa 0,0 mm 1,3 km/h (1 Bft) S 180 8,1 C 0,0 km/h (0 Bft)
15.05.2015 21:00 9,7 C 9,7 C 87 % 1015,0 hPa 0,0 mm 1,3 km/h (1 Bft) SW 225 7,6 C 0,0 km/h (0 Bft)
15.05.2015 21:05 9,7 C 9,7 C 87 % 1015,0 hPa 0,0 mm 0,0 km/h (0 Bft) SW 225 7,6 C 0,0 km/h (0 Bft)
15.05.2015 21:10 9,8 C 9,7 C 90 % 1015,0 hPa 0,0 mm 0,0 km/h (0 Bft) S 180 8,2 C 0,0 km/h (0 Bft)
15.05.2015 21:15 9,8 C 9,7 C 90 % 1015,3 hPa 0,0 mm 0,0 km/h (0 Bft) S-SO 157 8,2 C 0,0 km/h (0 Bft)
15.05.2015 21:20 9,8 C 9,8 C 88 % 1015,3 hPa 0,0 mm 0,0 km/h (0 Bft) S-SO 157 7,9 C 0,0 km/h (0 Bft)
15.05.2015 21:25 9,8 C 9,8 C 88 % 1015,3 hPa 0,0 mm 0,0 km/h (0 Bft) S-SO 157 7,9 C 0,0 km/h (0 Bft)
15.05.2015 21:30 9,9 C 9,8 C 90 % 1015,3 hPa 0,0 mm 0,0 km/h (0 Bft) S-SO 157 8,3 C 0,0 km/h (0 Bft)
15.05.2015 21:35 9,9 C 9,9 C 88 % 1015,7 hPa 0,0 mm 0,0 km/h (0 Bft) SO 135 8,0 C 0,0 km/h (0 Bft)
15.05.2015 21:40 9,9 C 9,9 C 88 % 1015,7 hPa 0,0 mm 0,0 km/h (0 Bft) S-SO 157 8,0 C 0,0 km/h (0 Bft)
15.05.2015 21:45 9,9 C 9,9 C 88 % 1015,7 hPa 0,0 mm 0,0 km/h (0 Bft) S-SO 157 8,0 C 0,0 km/h (0 Bft)
15.05.2015 21:50 10,0 C 9,9 C 90 % 1015,7 hPa 0,0 mm 0,0 km/h (0 Bft) SO 135 8,4 C 0,0 km/h (0 Bft)
15.05.2015 21:55 10,0 C 10,0 C 90 % 1016,1 hPa 0,0 mm 0,0 km/h (0 Bft) S-SO 157 8,4 C 0,0 km/h (0 Bft)
15.05.2015 22:00 10,0 C 10,0 C 90 % 1016,1 hPa 0,0 mm 0,0 km/h (0 Bft) W-SW 247 8,4 C 0,0 km/h (0 Bft)
15.05.2015 22:05 10,0 C 10,0 C 90 % 1016,1 hPa 0,0 mm 0,0 km/h (0 Bft) SW 225 8,4 C 0,0 km/h (0 Bft)
15.05.2015 22:10 10,0 C 10,0 C 88 % 1016,1 hPa 0,0 mm 0,0 km/h (0 Bft) SW 225 8,1 C 0,0 km/h (0 Bft)
15.05.2015 22:15 10,0 C 10,0 C 88 % 1016,4 hPa 0,0 mm 0,0 km/h (0 Bft) W-SW 247 8,1 C 0,0 km/h (0 Bft)
15.05.2015 22:20 10,1 C 10,0 C 90 % 1016,4 hPa 0,0 mm 0,0 km/h (0 Bft) SW 225 8,5 C 0,0 km/h (0 Bft)
15.05.2015 22:25 10,1 C 10,0 C 90 % 1016,4 hPa 0,0 mm 0,0 km/h (0 Bft) S-SO 157 8,5 C 0,0 km/h (0 Bft)
15.05.2015 22:30 10,1 C 10,0 C 90 % 1016,4 hPa 0,0 mm 0,0 km/h (0 Bft) SO 135 8,5 C 0,0 km/h (0 Bft)
15.05.2015 22:35 10,1 C 10,0 C 90 % 1016,6 hPa 0,0 mm 0,0 km/h (0 Bft) SO 135 8,5 C 0,0 km/h (0 Bft)
15.05.2015 22:40 10,1 C 10,0 C 90 % 1016,6 hPa 0,0 mm 0,0 km/h (0 Bft) SO 135 8,5 C 0,0 km/h (0 Bft)
15.05.2015 22:45 10,1 C 10,0 C 90 % 1016,6 hPa 0,0 mm 0,0 km/h (0 Bft) NW 315 8,5 C 0,0 km/h (0 Bft)
15.05.2015 22:50 10,1 C 10,0 C 90 % 1016,6 hPa 0,0 mm 0,0 km/h (0 Bft) NW 315 8,5 C 0,0 km/h (0 Bft)
15.05.2015 22:55 10,1 C 10,0 C 90 % 1016,7 hPa 0,0 mm 0,0 km/h (0 Bft) N-NW 337 8,5 C 0,0 km/h (0 Bft)
15.05.2015 23:00 10,1 C 10,1 C 88 % 1016,7 hPa 0,0 mm 0,3 km/h (0 Bft) N-NO 22 8,2 C 2,6 km/h (1 Bft)
15.05.2015 23:05 10,1 C 10,1 C 88 % 1016,7 hPa 0,0 mm 0,3 km/h (0 Bft) NO 45 8,2 C 0,0 km/h (0 Bft)
15.05.2015 23:10 10,2 C 10,1 C 90 % 1016,7 hPa 0,0 mm 0,0 km/h (0 Bft) NO 45 8,6 C 0,0 km/h (0 Bft)
15.05.2015 23:15 10,2 C 10,1 C 90 % 1016,8 hPa 0,0 mm 0,0 km/h (0 Bft) NO 45 8,6 C 0,0 km/h (0 Bft)
15.05.2015 23:20 10,2 C 10,1 C 90 % 1016,8 hPa 0,0 mm 0,0 km/h (0 Bft) O-SO 112 8,6 C 0,0 km/h (0 Bft)
15.05.2015 23:25 10,2 C 10,1 C 90 % 1016,8 hPa 0,0 mm 0,0 km/h (0 Bft) O-SO 112 8,6 C 0,0 km/h (0 Bft)
15.05.2015 23:30 10,2 C 10,1 C 90 % 1016,8 hPa 0,0 mm 0,3 km/h (0 Bft) O-NO 67 8,6 C 3,6 km/h (1 Bft)
15.05.2015 23:35 10,2 C 10,1 C 90 % 1017,1 hPa 0,0 mm 0,3 km/h (0 Bft) S-SO 157 8,6 C 0,0 km/h (0 Bft)
15.05.2015 23:40 10,2 C 10,1 C 90 % 1017,1 hPa 0,0 mm 0,3 km/h (0 Bft) NO 45 8,6 C 0,0 km/h (0 Bft)
15.05.2015 23:45 10,2 C 10,1 C 90 % 1017,1 hPa 0,0 mm 0,0 km/h (0 Bft) N-NW 337 8,6 C 0,0 km/h (0 Bft)
15.05.2015 23:50 10,1 C 10,1 C 88 % 1017,1 hPa 0,0 mm 0,0 km/h (0 Bft) N-NW 337 8,2 C 0,0 km/h (0 Bft)
15.05.2015 23:55 10,1 C 10,1 C 88 % 1017,3 hPa 0,0 mm 0,0 km/h (0 Bft) NW 315 8,2 C 0,0 km/h (0 Bft)
_ Min-Zeit 09:50 09:50 13:05 02:50 - 23:55 - - 10:35 23:55
Minimum _ 8,0 C 7,9 C 84 % 1008,5 hPa - 0,0 km/h (0 Bft) - - 5,7 C 0,0 km/h (0 Bft)
_ Max-Zeit 03:35 03:40 23:45 23:55 19:05 04:25 - - 03:35 03:40
Maximum _ 11,3 C 11,1 C 90 % 1017,3 hPa 0,7 mm 8,5 km/h
S-SW (2 Bft)
- - 9,6 C 23,0 km/h
W-SW (4 Bft)
Durchschnitt _ 9,4 C 9,4 C 87 % 1011,5 hPa #21,3 mm 1,5 km/h (1 Bft) W - 7,4 C 1,9 km/h (1 Bft)